TimeCDT,TemperatureF,Dew PointF,Humidity,Sea Level PressureIn,VisibilityMPH,Wind Direction,Wind SpeedMPH,Gust SpeedMPH,PrecipitationIn,Events,Conditions,WindDirDegrees,DateUTC
12:15 AM,58.3,57.9,99,29.91,10.0,Calm,Calm,-,N/A,,Clear,0,2013-06-16 05:15:00
12:35 AM,56.8,56.5,99,29.91,0.5,Calm,Calm,-,N/A,Fog,Fog,0,2013-06-16 05:35:00
12:55 AM,57.0,56.5,98,29.90,0.5,Calm,Calm,-,N/A,Fog,Fog,0,2013-06-16 05:55:00
1:15 AM,56.5,56.3,99,29.90,1.2,Calm,Calm,-,N/A,,Overcast,0,2013-06-16 06:15:00
1:35 AM,55.9,55.8,99,29.90,4.0,Calm,Calm,-,N/A,,Scattered Clouds,0,2013-06-16 06:35:00
1:55 AM,56.3,56.1,99,29.90,2.5,Calm,Calm,-,N/A,,Clear,0,2013-06-16 06:55:00
2:15 AM,55.2,55.0,99,29.89,5.0,Calm,Calm,-,N/A,,Clear,0,2013-06-16 07:15:00
2:35 AM,54.5,54.1,99,29.89,0.8,Calm,Calm,-,N/A,,Mostly Cloudy,0,2013-06-16 07:35:00
2:55 AM,53.8,53.6,99,29.89,0.5,Calm,Calm,-,N/A,Fog,Fog,0,2013-06-16 07:55:00
3:15 AM,53.4,53.2,99,29.89,10.0,Calm,Calm,-,N/A,,Mostly Cloudy,0,2013-06-16 08:15:00
3:35 AM,52.5,52.3,99,29.90,0.8,Calm,Calm,-,N/A,,Overcast,0,2013-06-16 08:35:00
3:55 AM,52.2,52.0,99,29.90,7.0,Calm,Calm,-,N/A,,Scattered Clouds,0,2013-06-16 08:55:00
4:15 AM,52.0,51.8,99,29.91,5.0,Calm,Calm,-,N/A,,Clear,0,2013-06-16 09:15:00
4:35 AM,52.3,52.2,99,29.91,10.0,Calm,Calm,-,N/A,,Clear,0,2013-06-16 09:35:00
4:55 AM,52.2,52.0,99,29.91,7.0,Calm,Calm,-,N/A,,Clear,0,2013-06-16 09:55:00
5:15 AM,52.7,52.5,99,29.93,10.0,Calm,Calm,-,N/A,,Clear,0,2013-06-16 10:15:00
5:35 AM,52.2,51.8,99,29.92,10.0,Calm,Calm,-,N/A,,Clear,0,2013-06-16 10:35:00
5:55 AM,51.8,51.8,100,29.92,10.0,Calm,Calm,-,N/A,,Clear,0,2013-06-16 10:55:00
6:15 AM,52.5,52.2,99,29.93,10.0,Calm,Calm,-,N/A,,Clear,0,2013-06-16 11:15:00
6:35 AM,55.4,54.9,98,29.94,10.0,Calm,Calm,-,N/A,,Clear,0,2013-06-16 11:35:00
6:55 AM,57.2,56.3,97,29.94,10.0,Calm,Calm,-,N/A,,Clear,0,2013-06-16 11:55:00
7:15 AM,59.5,56.3,89,29.94,10.0,Calm,Calm,-,N/A,,Clear,0,2013-06-16 12:15:00
7:35 AM,61.5,55.2,80,29.94,10.0,Calm,Calm,-,N/A,,Clear,0,2013-06-16 12:35:00
7:55 AM,63.3,55.9,77,29.94,10.0,Calm,Calm,-,N/A,,Clear,0,2013-06-16 12:55:00
8:15 AM,65.3,56.5,73,29.94,10.0,Calm,Calm,-,N/A,,Clear,0,2013-06-16 13:15:00
8:35 AM,67.1,55.9,67,29.94,10.0,WSW,3.5,-,N/A,,Clear,240,2013-06-16 13:35:00
8:55 AM,68.7,56.5,65,29.94,10.0,Calm,Calm,-,N/A,,Clear,0,2013-06-16 13:55:00
9:15 AM,70.7,57.4,63,29.94,10.0,WNW,4.6,-,N/A,,Clear,300,2013-06-16 14:15:00
9:35 AM,72.0,56.1,57,29.94,10.0,WNW,6.9,-,N/A,,Clear,290,2013-06-16 14:35:00
9:55 AM,73.6,56.8,56,29.93,10.0,West,5.8,-,N/A,,Clear,260,2013-06-16 14:55:00
10:15 AM,74.8,55.8,51,29.94,10.0,West,9.2,-,N/A,,Clear,280,2013-06-16 15:15:00
10:35 AM,76.1,55.4,49,29.93,10.0,West,8.1,-,N/A,,Clear,260,2013-06-16 15:35:00
10:55 AM,77.2,55.0,46,29.94,10.0,WNW,8.1,-,N/A,,Clear,290,2013-06-16 15:55:00
11:15 AM,78.1,54.3,44,29.94,10.0,West,10.4,-,N/A,,Clear,280,2013-06-16 16:15:00
11:35 AM,79.0,53.2,41,29.93,10.0,WNW,11.5,-,N/A,,Clear,290,2013-06-16 16:35:00
11:55 AM,79.3,50.0,36,29.93,10.0,West,9.2,17.3,N/A,,Clear,270,2013-06-16 16:55:00
12:15 PM,80.1,51.1,36,29.93,10.0,West,13.8,21.9,N/A,,Scattered Clouds,280,2013-06-16 17:15:00
12:35 PM,79.2,50.4,36,29.92,10.0,West,9.2,-,N/A,,Mostly Cloudy,270,2013-06-16 17:35:00
12:55 PM,80.2,49.5,34,29.92,10.0,West,11.5,20.7,N/A,,Mostly Cloudy,260,2013-06-16 17:55:00
1:15 PM,80.4,48.4,32,29.91,10.0,WNW,15.0,-,N/A,,Scattered Clouds,300,2013-06-16 18:15:00
1:35 PM,80.8,48.4,32,29.91,10.0,West,15.0,19.6,N/A,,Scattered Clouds,280,2013-06-16 18:35:00
1:55 PM,81.5,48.6,32,29.91,10.0,West,9.2,23.0,N/A,,Scattered Clouds,270,2013-06-16 18:55:00
2:15 PM,82.6,49.1,31,29.92,10.0,West,12.7,18.4,N/A,,Scattered Clouds,270,2013-06-16 19:15:00
2:35 PM,82.6,46.4,28,29.92,10.0,West,10.4,17.3,N/A,,Scattered Clouds,260,2013-06-16 19:35:00
2:55 PM,83.5,47.3,28,29.91,10.0,West,16.1,21.9,N/A,,Scattered Clouds,260,2013-06-16 19:55:00
3:15 PM,82.8,48.0,30,29.92,10.0,West,13.8,-,N/A,,Scattered Clouds,270,2013-06-16 20:15:00
3:35 PM,83.8,46.9,28,29.91,10.0,West,13.8,-,N/A,,Scattered Clouds,280,2013-06-16 20:35:00
3:55 PM,84.2,45.9,26,29.90,10.0,West,13.8,19.6,N/A,,Clear,260,2013-06-16 20:55:00
4:15 PM,84.2,44.1,24,29.90,10.0,West,15.0,24.2,N/A,,Clear,280,2013-06-16 21:15:00
4:35 PM,84.2,44.6,25,29.88,10.0,West,15.0,-,N/A,,Clear,280,2013-06-16 21:35:00
4:55 PM,82.0,46.2,28,29.88,10.0,West,12.7,-,N/A,,Scattered Clouds,270,2013-06-16 21:55:00
5:15 PM,83.3,48.0,29,29.87,10.0,WSW,10.4,-,N/A,,Scattered Clouds,250,2013-06-16 22:15:00
5:35 PM,81.7,50.7,34,29.87,10.0,WSW,6.9,-,N/A,,Clear,250,2013-06-16 22:35:00
5:55 PM,81.9,49.8,33,29.87,10.0,WSW,6.9,-,N/A,,Clear,250,2013-06-16 22:55:00
6:15 PM,81.3,50.0,33,29.86,10.0,WSW,6.9,-,N/A,,Clear,250,2013-06-16 23:15:00
6:35 PM,79.7,51.3,37,29.86,10.0,WSW,5.8,-,N/A,,Clear,250,2013-06-16 23:35:00
6:55 PM,79.0,55.4,44,29.86,10.0,WSW,4.6,-,N/A,,Clear,240,2013-06-16 23:55:00
7:15 PM,77.5,49.8,38,29.89,10.0,WSW,16.1,24.2,N/A,,Scattered Clouds,250,2013-06-17 00:15:00
7:35 PM,75.9,50.7,41,29.88,10.0,WSW,15.0,-,N/A,,Clear,250,2013-06-17 00:35:00
7:55 PM,74.8,50.5,42,29.88,10.0,WSW,11.5,19.6,N/A,,Clear,250,2013-06-17 00:55:00
8:15 PM,73.4,50.9,45,29.87,10.0,WSW,5.8,-,N/A,,Clear,250,2013-06-17 01:15:00
8:35 PM,71.6,52.7,51,29.87,10.0,WSW,4.6,-,N/A,,Clear,240,2013-06-17 01:35:00
8:55 PM,69.4,52.9,56,29.86,10.0,SSW,3.5,-,N/A,,Clear,210,2013-06-17 01:55:00
9:15 PM,67.5,54.5,63,29.86,10.0,SSW,3.5,-,N/A,,Clear,200,2013-06-17 02:15:00
9:35 PM,65.5,54.0,66,29.87,10.0,SSW,3.5,-,N/A,,Clear,200,2013-06-17 02:35:00
9:55 PM,64.8,53.6,67,29.88,10.0,SSW,4.6,-,N/A,,Clear,210,2013-06-17 02:55:00
10:15 PM,66.6,52.9,61,29.88,10.0,SW,3.5,-,N/A,,Clear,220,2013-06-17 03:15:00
10:35 PM,62.1,54.1,75,29.88,10.0,Calm,Calm,-,N/A,,Scattered Clouds,0,2013-06-17 03:35:00
10:55 PM,62.8,53.6,72,29.88,10.0,Calm,Calm,-,N/A,,Scattered Clouds,0,2013-06-17 03:55:00
11:15 PM,63.9,54.1,71,29.88,10.0,SW,4.6,-,N/A,,Scattered Clouds,220,2013-06-17 04:15:00
11:35 PM,65.1,54.5,68,29.87,10.0,SW,4.6,-,N/A,,Scattered Clouds,230,2013-06-17 04:35:00
11:55 PM,63.5,55.0,74,29.87,10.0,SW,5.8,-,N/A,,Mostly Cloudy,230,2013-06-17 04:55:00